| time (UTC) | temp C | wind direction | speed KPH | gust KPH | rain 1hr cm | rain 24hr cm | rain mn cm | humidity % | barometer mb |
| 20260505124550 | 15 | 267 | 6.4 | 19.3 | 0.00 | 0.00 | 0.00 | 43 | 1009.9 |
| 20260505123059 | 15 | 292 | 4.8 | 16.1 | 0.00 | 0.00 | 0.00 | 56 | 1010.1 |
| 20260505121546 | 14 | 319 | 3.2 | 9.7 | 0.00 | 0.00 | 0.00 | 100 | 1010.0 |
| 20260505120046 | 15 | 317 | 6.4 | 17.7 | 0.00 | 0.00 | 0.00 | 100 | 1010.0 |
| 20260505114544 | 15 | 298 | 3.2 | 12.9 | 0.00 | 0.00 | 0.00 | 100 | 1010.0 |
| 20260505113043 | 13 | 305 | 6.4 | 24.1 | 0.00 | 0.00 | 0.00 | 100 | 1010.2 |
| 20260505111543 | 13 | 299 | 1.6 | 14.5 | 0.00 | 0.00 | 0.00 | 100 | 1010.1 |
| 20260505101537 | 13 | 271 | 1.6 | 8.0 | 0.00 | 0.00 | 0.00 | 100 | 1010.5 |
| 20260505100035 | 13 | 286 | 3.2 | 11.3 | 0.00 | 0.00 | 0.00 | 100 | 1010.6 |
| 20260505094533 | 12 | 259 | 1.6 | 8.0 | 0.00 | 0.00 | 0.00 | 100 | 1010.6 |
| 20260505093037 | 12 | 206 | 1.6 | 8.0 | 0.00 | 0.00 | 0.00 | 100 | 1010.6 |
| 20260505091536 | 11 | 297 | 1.6 | 11.3 | 0.00 | 0.00 | 0.00 | 100 | 1010.8 |
| 20260505090030 | 11 | 265 | 3.2 | 8.0 | 0.00 | 0.00 | 0.00 | 100 | 1010.7 |
| 20260505084531 | 11 | 313 | 4.8 | 9.7 | 0.00 | 0.00 | 0.00 | 100 | 1010.7 |
| 20260505083033 | 12 | 304 | 1.6 | 8.0 | 0.00 | 0.00 | 0.00 | 100 | 1010.8 |
| 20260505081525 | 11 | 286 | 3.2 | 8.0 | 0.00 | 0.00 | 0.00 | 100 | 1010.8 |
| 20260505080023 | 10 | 307 | 4.8 | 9.7 | 0.00 | 0.00 | 0.00 | 100 | 1010.7 |
| 20260505074521 | 9 | 292 | 3.2 | 11.3 | 0.00 | 0.00 | 0.00 | 100 | 1010.7 |
| 20260505073021 | 10 | 302 | 3.2 | 9.7 | 0.00 | 0.00 | 0.00 | 100 | 1010.7 |
| 20260505071519 | 9 | 302 | 3.2 | 8.0 | 0.00 | 0.00 | 0.00 | 100 | 1010.6 |
| 20260505070019 | 10 | 309 | 3.2 | 11.3 | 0.00 | 0.00 | 0.00 | 100 | 1010.7 |
| 20260505064517 | 9 | 299 | 3.2 | 8.0 | 0.00 | 0.00 | 0.00 | 100 | 1010.5 |
| 20260505063016 | 9 | 306 | 3.2 | 8.0 | 0.00 | 0.00 | 0.00 | 100 | 1010.6 |
| 20260505061511 | 8 | 299 | 3.2 | 8.0 | 0.00 | 0.00 | 0.00 | 100 | 1010.6 |
| 20260505060009 | 8 | 309 | 6.4 | 14.5 | 0.00 | 0.00 | 0.00 | 100 | 1010.7 |
| 20260505054506 | 7 | 321 | 4.8 | 12.9 | 0.00 | 0.00 | 0.00 | 100 | 1010.6 |
| 20260505053002 | 6 | 312 | 1.6 | 6.4 | 0.00 | 0.00 | 0.00 | 100 | 1010.5 |
| 20260505051614 | 6 | 312 | 1.6 | 6.4 | 0.00 | 0.00 | 0.00 | 100 | 1010.4 |
| 20260505041549 | 2 | 32 | 1.6 | 4.8 | 0.00 | 0.00 | 0.00 | 100 | 1010.4 |
| 20260505040042 | 2 | 143 | 0.0 | 1.6 | 0.00 | 0.00 | 0.00 | 100 | 1010.5 |
| 20260505034541 | 2 | 311 | 0.0 | 1.6 | 0.00 | 0.00 | 0.00 | 100 | 1010.5 |
| 20260505033018 | 3 | 311 | 0.0 | 0.0 | 0.00 | 0.00 | 0.00 | 100 | 1010.6 |
| 20260505031518 | 3 | 311 | 0.0 | 0.0 | 0.00 | 0.00 | 0.00 | 100 | 1010.6 |
| 20260505030016 | 2 | 311 | 0.0 | 0.0 | 0.00 | 0.00 | 0.00 | 100 | 1010.6 |
| 20260505024516 | 3 | 311 | 0.0 | 0.0 | 0.00 | 0.00 | 0.00 | 100 | 1010.5 |
| 20260505023016 | 3 | 311 | 0.0 | 1.6 | 0.00 | 0.00 | 0.00 | 100 | 1010.3 |
| 20260505021515 | 3 | 311 | 0.0 | 0.0 | 0.00 | 0.00 | 0.00 | 100 | 1010.4 |
| 20260505020014 | 3 | 311 | 1.6 | 3.2 | 0.00 | 0.00 | 0.00 | 100 | 1010.4 |
| 20260505014513 | 3 | 311 | 0.0 | 0.0 | 0.00 | 0.00 | 0.00 | 100 | 1010.5 |
| 20260505013012 | 3 | 311 | 0.0 | 3.2 | 0.00 | 0.00 | 0.00 | 100 | 1010.6 |
| 20260505011513 | 2 | 311 | 0.0 | 3.2 | 0.00 | 0.00 | 0.00 | 100 | 1010.7 |
| 20260505010010 | 2 | 311 | 0.0 | 1.6 | 0.00 | 0.00 | 0.00 | 100 | 1010.6 |
| 20260505004509 | 2 | 311 | 0.0 | 0.0 | 0.00 | 0.00 | 0.00 | 100 | 1010.7 |
| 20260505003017 | 2 | 311 | 0.0 | 3.2 | 0.00 | 0.00 | 0.00 | 100 | 1010.6 |
| 20260505001505 | 2 | 311 | 0.0 | 3.2 | 0.00 | 0.00 | 0.00 | 100 | 1010.7 |
| 20260505000005 | 2 | 311 | 0.0 | 0.0 | 0.00 | 0.00 | 0.00 | 100 | 1010.7 |
| 20260504234504 | 2 | 311 | 0.0 | 0.0 | 0.00 | 0.00 | 0.00 | 100 | 1010.8 |
| 20260504233001 | 2 | 311 | 0.0 | 1.6 | 0.00 | 0.00 | 0.00 | 100 | 1010.7 |
| 20260504231604 | 3 | 313 | 0.0 | 4.8 | 0.00 | 0.00 | 0.00 | 100 | 1010.7 |
| 20260504230059 | 3 | 313 | 0.0 | 0.0 | 0.00 | 0.00 | 0.00 | 100 | 1010.8 |
| 20260504224555 | 3 | 313 | 0.0 | 0.0 | 0.00 | 0.00 | 0.00 | 100 | 1010.9 |
| 20260504223053 | 3 | 313 | 1.6 | 4.8 | 0.00 | 0.00 | 0.00 | 100 | 1010.8 |
| 20260504221550 | 3 | 290 | 0.0 | 0.0 | 0.00 | 0.00 | 0.00 | 100 | 1010.9 |
| 20260504220048 | 4 | 290 | 0.0 | 0.0 | 0.00 | 0.00 | 0.00 | 100 | 1011.0 |
| 20260504214553 | 5 | 290 | 0.0 | 0.0 | 0.00 | 0.00 | 0.00 | 100 | 1011.0 |
| 20260504213044 | 5 | 290 | 0.0 | 0.0 | 0.00 | 0.00 | 0.00 | 100 | 1011.1 |
| 20260504211541 | 5 | 290 | 0.0 | 0.0 | 0.00 | 0.00 | 0.00 | 100 | 1011.1 |
| 20260504210043 | 6 | 290 | 0.0 | 0.0 | 0.00 | 0.00 | 0.00 | 100 | 1011.0 |
| 20260504204538 | 6 | 290 | 0.0 | 0.0 | 0.00 | 0.00 | 0.00 | 100 | 1011.0 |
| 20260504203049 | 7 | 290 | 0.0 | 0.0 | 0.00 | 0.00 | 0.00 | 100 | 1011.0 |
| 20260504201531 | 7 | 290 | 0.0 | 0.0 | 0.00 | 0.00 | 0.00 | 100 | 1010.9 |
| 20260504200026 | 8 | 290 | 0.0 | 0.0 | 0.00 | 0.00 | 0.00 | 100 | 1010.9 |
| 20260504194523 | 8 | 290 | 0.0 | 0.0 | 0.00 | 0.00 | 0.00 | 100 | 1010.9 |
| 20260504193020 | 8 | 292 | 1.6 | 4.8 | 0.00 | 0.00 | 0.00 | 100 | 1010.8 |
| 20260504191523 | 9 | 293 | 0.0 | 0.0 | 0.00 | 0.00 | 0.00 | 100 | 1010.7 |
| 20260504190014 | 10 | 293 | 0.0 | 0.0 | 0.00 | 0.00 | 0.00 | 100 | 1010.6 |
| 20260504184511 | 10 | 293 | 1.6 | 4.8 | 0.00 | 0.00 | 0.00 | 100 | 1010.4 |
| 20260504183008 | 11 | 293 | 3.2 | 6.4 | 0.00 | 0.00 | 0.00 | 100 | 1010.3 |
| 20260504181507 | 11 | 286 | 3.2 | 8.0 | 0.00 | 0.00 | 0.00 | 100 | 1010.3 |
| 20260504180007 | 12 | 286 | 3.2 | 6.4 | 0.00 | 0.00 | 0.00 | 100 | 1010.3 |
| 20260504174507 | 12 | 299 | 4.8 | 8.0 | 0.00 | 0.00 | 0.00 | 100 | 1010.2 |
| 20260504173005 | 12 | 286 | 3.2 | 9.7 | 0.00 | 0.00 | 0.00 | 100 | 1010.2 |
| 20260504171503 | 12 | 284 | 4.8 | 12.9 | 0.00 | 0.00 | 0.00 | 100 | 1010.2 |
| 20260504160103 | 15 | 298 | 6.4 | 12.9 | 0.00 | 0.00 | 0.00 | 100 | 1009.9 |